Flag for United Kingdom Weather past 2 weeks in Cardiff, Wales, United Kingdom

Now
37 °F

Overcast.


Feels Like: 31 °F
Forecast: N/A
Wind: 8 mph from North

Location: Wales Airport

Current Time: Dec 27, 2014 at 11:44:07 PM

Latest Report: Dec 27, 2014 at 11:20 PM


Visibility: N/A

Pressure: 30.04 "Hg

Humidity: 87%

Dew point: 34 °F

Location of CardiffLocation

Historic Weather in Cardiff — Graph

°F

Cardiff temperature yesterday

Maximum temperature yesterday: 50 °F (at 5:20 PM)
Minimum temperature yesterday: 34 °F (at 1:20 AM)
Average temperature yesterday: 42 °F

Past Weeks' High & Low Weather Summary

 TemperatureHumidityPressure
High54 °F (Dec 17, 1:20 PM)100% (Dec 14, 7:20 PM)30.54 "Hg (Dec 14, 7:20 PM)
Low30 °F (Dec 13, 8:50 AM)62% (Dec 24, 12:20 PM)29.68 "Hg (Dec 12, 10:20 PM)
Average46 °F90%30.03 "Hg
* Reported Dec 12 10:20 PM — Dec 27 10:20 PM, Cardiff, Weather by CustomWeather, © 2014

Note: Actual official high and low records may vary slightly from our data, if they occured in-between our weather recording intervals... More about our weather records

Advertising

Cardiff weather history for previous 24 hours

 ConditionsComfort  
Time TempWeatherWind HumidityBarometerVisibility
10:20 PM
Dec 27
37 °FOvercast.9 mph87%30.01 "HgN/A
9:50 PM36 °FOvercast.13 mph93%29.98 "HgN/A
9:20 PM36 °FPassing clouds.8 mph87%29.95 "HgN/A
8:50 PM34 °FPassing clouds.3 mph93%29.95 "HgN/A
8:20 PM34 °FPassing clouds.6 mph93%29.92 "HgN/A
7:50 PM34 °FChilly.8 mph93%29.92 "HgN/A
7:20 PM34 °FChilly.10 mph93%29.89 "HgN/A
6:50 PM36 °FChilly.8 mph93%29.89 "HgN/A
6:20 PM36 °FChilly.13 mph93%29.86 "HgN/A
5:50 PM36 °FChilly.7 mph93%29.86 "HgN/A
5:20 PM36 °FChilly.9 mph93%29.86 "HgN/A
4:50 PM37 °FPassing clouds.9 mph87%29.86 "HgN/A
4:20 PM37 °FPassing clouds.14 mph93%29.86 "HgN/A
3:50 PM39 °FRain. Partly sunny.6 mph93%29.83 "HgN/A
3:20 PM39 °FRain. Broken clouds.9 mph93%29.83 "HgN/A
2:50 PM41 °FLight rain. Partly sunny.10 mph87%29.83 "Hg5 mi
2:20 PM39 °FPartly sunny.10 mph93%29.83 "HgN/A
1:50 PM41 °FHeavy rain. Broken clouds.16 mph81%29.83 "Hg1 mi
1:20 PM41 °FBroken clouds.10 mph87%29.83 "HgN/A
12:50 PM45 °FOvercast.13 mph81%29.86 "HgN/A
12:20 PM45 °FPartly sunny.15 mph81%29.86 "HgN/A
11:50 AM43 °FPartly sunny.14 mph87%29.86 "HgN/A
11:20 AM43 °FPassing clouds.13 mph87%29.86 "HgN/A
10:50 AM41 °FPartly sunny.9 mph93%29.89 "HgN/A
10:20 AM39 °FBroken clouds.9 mph93%29.89 "HgN/A
9:50 AM39 °FPartly sunny.9 mph93%29.89 "HgN/A
9:20 AM37 °FPartly sunny.9 mph93%29.92 "HgN/A
8:50 AM39 °FPartly sunny.8 mph93%29.92 "HgN/A
8:20 AM39 °FPartly sunny.10 mph93%29.92 "HgN/A
7:50 AM37 °FPassing clouds.10 mph93%29.92 "HgN/A
7:20 AM39 °FMostly cloudy.10 mph87%29.92 "HgN/A
6:50 AM37 °FOvercast.8 mph93%29.92 "HgN/A
6:20 AM36 °FPassing clouds.7 mph93%29.92 "HgN/A
5:50 AM36 °FPassing clouds.7 mph93%29.92 "HgN/A
5:20 AM37 °FPassing clouds.8 mph87%29.92 "HgN/A
4:50 AM36 °FChilly.9 mph87%29.89 "HgN/A
4:20 AM36 °FPassing clouds.7 mph87%29.89 "HgN/A
3:20 AM36 °FPassing clouds.9 mph87%29.89 "HgN/A
2:50 AM36 °FPassing clouds.12 mph87%29.86 "HgN/A
2:20 AM37 °FPassing clouds.12 mph87%29.86 "HgN/A
1:50 AM37 °FPassing clouds.14 mph87%29.86 "HgN/A
1:20 AM39 °FPassing clouds.15 mph81%29.83 "HgN/A
12:50 AM39 °FPassing clouds.17 mph81%29.83 "HgN/A
12:20 AM39 °FPassing clouds.16 mph87%29.80 "HgN/A
11:50 PM
Dec 26
41 °FOvercast.20 mph87%29.77 "HgN/A
11:20 PM43 °FOvercast.24 mph87%29.74 "HgN/A
Weather by CustomWeather, © 2014

See weather overviewHow to use our weather pages